Regional Weather Roundup
Issued by NWS

Home | Current Version | Previous Version | Graphics & Text | Print | Product List | Glossary On
Versions: 1 2 3 4 5 6 7 8 9 10 11 12 13 14 15 16 17 18 19 20 21 22 23 24 25 26 27 28
000
ASUS45 KBOI 240510
RWRID

IDAHO REGIONAL WEATHER ROUNDUP
NATIONAL WEATHER SERVICE BOISE ID
1000 PM MST FRI FEB 23 2018

NOTE: "FAIR" INDICATES FEW OR NO CLOUDS BELOW 12000 FEET
WITH NO SIGNIFICANT WEATHER AND/OR OBSTRUCTIONS TO VISIBILITY

IDZ012-014-240600-
SOUTHWEST IDAHO


CITY           SKY/WX    TMP DP  RH WIND       PRES   REMARKS
BOISE          CLOUDY    26  13  57 E5        30.24F WCI  20
CALDWELL       CLOUDY    30  14  51 S5        30.25F WCI  25
MOUNTAIN HOME  CLOUDY    21  17  84 CALM      30.24S
$$

IDZ016-017-240600-
SOUTHCENTRAL IDAHO


CITY           SKY/WX    TMP DP  RH WIND       PRES   REMARKS
BURLEY         MOCLDY    13   5  70 SW8       30.16S WCI   2
JEROME         CLOUDY    21  10  62 SW12      30.18S WCI   9
TWIN FALLS     CLOUDY    16   9  74 S14       30.19R WCI   2
$$

IDZ019>023-240600-
SOUTHEAST IDAHO


CITY           SKY/WX    TMP DP  RH WIND       PRES   REMARKS
IDAHO FALLS    CLEAR     17  10  74 S21       30.07F WCI   0
POCATELLO      CLEAR     19   8  62 SW18      30.12F WCI   4
REXBURG        PTCLDY    16  12  84 S15G23    30.04F WCI   1
$$

IDZ006-010-011-018-031-032-240600-
CENTRAL IDAHO MOUNTAINS


CITY           SKY/WX    TMP DP  RH WIND       PRES   REMARKS
MCCALL         CLOUDY    15  10  80 CALM      30.08F
HAILEY         CLEAR     12   7  79 NW7       30.08F WCI   2
STANLEY          N/A     13   2  61 NW3       30.01F
SALMON         CLOUDY    20  14  77 NW3       30.05F
CHALLIS        CLOUDY    24   2  38 SW8       30.01F WCI  15
$$

IDZ002-004-006-007-026-240600-
NORTHERN IDAHO


CITY           SKY/WX    TMP DP  RH WIND       PRES   REMARKS
LEWISTON       CLOUDY    28  23  81 NE9       30.19F WCI  19
LOWELL           N/A     27  24  89 CALM      30.26F
COEUR D`ALENE  LGT SNOW  22  19  89 S13       30.12F FOG     WCI  10
MULLAN PASS    LGT SNOW   6   4  91 SW8G17    29.88S FOG     WCI  -7
$$




USA.gov is the U.S. government's official web portal to all federal, state and local government web resources and services.